Time,TemperatureF,DewpointF,PressureIn,WindDirection,WindDirectionDegrees,WindSpeedMPH,WindSpeedGustMPH,Humidity,HourlyPrecipIn,Conditions,Clouds,dailyrainin,SoftwareType,DateUTC
2013-03-23 00:00:00,36.5,29.7,30.42,ENE,70,0.0,1.0,76,0.00,,,0.00,WUHU216DAVISVP2,2013-03-23 07:00:00,
2013-03-23 00:05:00,36.4,29.6,30.42,ENE,70,0.0,1.0,76,0.00,,,0.00,WUHU216DAVISVP2,2013-03-23 07:05:00,
2013-03-23 00:10:00,36.3,30.1,30.42,East,81,1.0,1.0,78,0.00,,,0.00,WUHU216DAVISVP2,2013-03-23 07:10:00,
2013-03-23 00:15:00,36.3,30.4,30.41,ENE,63,1.0,2.0,79,0.00,,,0.00,WUHU216DAVISVP2,2013-03-23 07:15:00,
2013-03-23 00:20:00,36.2,30.3,30.41,ENE,66,1.0,2.0,79,0.00,,,0.00,WUHU216DAVISVP2,2013-03-23 07:20:00,
2013-03-23 00:25:00,36.1,30.5,30.41,East,101,1.0,2.0,80,0.00,,,0.00,WUHU216DAVISVP2,2013-03-23 07:25:00,
2013-03-23 00:30:00,36.0,30.7,30.41,ENE,73,0.0,3.0,81,0.00,,,0.00,WUHU216DAVISVP2,2013-03-23 07:30:00,
2013-03-23 00:35:00,36.0,31.0,30.42,East,82,2.0,3.0,82,0.00,,,0.00,WUHU216DAVISVP2,2013-03-23 07:35:00,
2013-03-23 00:40:00,35.9,31.2,30.42,ENE,65,2.0,2.0,83,0.00,,,0.00,WUHU216DAVISVP2,2013-03-23 07:40:00,
2013-03-23 00:45:00,35.9,31.5,30.42,East,83,0.0,4.0,84,0.00,,,0.00,WUHU216DAVISVP2,2013-03-23 07:45:00,
2013-03-23 00:50:00,35.8,31.4,30.42,ENE,70,3.0,4.0,84,0.00,,,0.00,WUHU216DAVISVP2,2013-03-23 07:50:00,
2013-03-23 00:55:00,35.8,31.7,30.42,ENE,77,2.0,3.0,85,0.00,,,0.00,WUHU216DAVISVP2,2013-03-23 07:55:00,
2013-03-23 01:00:00,35.7,31.6,30.42,ENE,60,3.0,3.0,85,0.00,,,0.00,WUHU216DAVISVP2,2013-03-23 08:00:00,
2013-03-23 01:05:00,35.7,31.6,30.42,ENE,75,2.0,4.0,85,0.00,,,0.00,WUHU216DAVISVP2,2013-03-23 08:05:00,
2013-03-23 01:10:00,35.7,31.6,30.42,ENE,70,1.0,4.0,85,0.00,,,0.00,WUHU216DAVISVP2,2013-03-23 08:10:00,
2013-03-23 01:15:00,35.8,31.4,30.42,ENE,63,3.0,4.0,84,0.00,,,0.00,WUHU216DAVISVP2,2013-03-23 08:15:00,
2013-03-23 01:20:00,35.7,31.3,30.42,ENE,59,2.0,4.0,84,0.00,,,0.00,WUHU216DAVISVP2,2013-03-23 08:20:00,
2013-03-23 01:25:00,35.7,31.6,30.42,ENE,72,2.0,4.0,85,0.00,,,0.00,WUHU216DAVISVP2,2013-03-23 08:25:00,
2013-03-23 01:30:00,35.7,31.6,30.42,ENE,70,1.0,4.0,85,0.00,,,0.00,WUHU216DAVISVP2,2013-03-23 08:30:00,
2013-03-23 01:35:00,35.7,31.9,30.42,ENE,75,3.0,4.0,86,0.00,,,0.00,WUHU216DAVISVP2,2013-03-23 08:35:00,
2013-03-23 01:40:00,35.6,32.1,30.42,East,91,1.0,4.0,87,0.00,,,0.00,WUHU216DAVISVP2,2013-03-23 08:40:00,
2013-03-23 01:45:00,35.5,32.0,30.42,ENE,70,2.0,4.0,87,0.00,,,0.00,WUHU216DAVISVP2,2013-03-23 08:45:00,
2013-03-23 01:50:00,35.5,32.0,30.42,East,79,3.0,4.0,87,0.00,,,0.00,WUHU216DAVISVP2,2013-03-23 08:50:00,
2013-03-23 01:55:00,35.4,31.6,30.42,ENE,64,3.0,4.0,86,0.00,,,0.00,WUHU216DAVISVP2,2013-03-23 08:55:00,
2013-03-23 02:00:00,35.4,31.3,30.42,NE,49,4.0,5.0,85,0.00,,,0.00,WUHU216DAVISVP2,2013-03-23 09:00:00,
2013-03-23 02:05:00,35.4,31.0,30.43,ENE,63,2.0,5.0,84,0.00,,,0.00,WUHU216DAVISVP2,2013-03-23 09:05:00,
2013-03-23 02:10:00,35.4,31.0,30.43,ENE,77,0.0,5.0,84,0.00,,,0.00,WUHU216DAVISVP2,2013-03-23 09:10:00,
2013-03-23 02:15:00,35.4,31.0,30.42,ENE,63,4.0,4.0,84,0.00,,,0.00,WUHU216DAVISVP2,2013-03-23 09:15:00,
2013-03-23 02:20:00,35.4,30.7,30.42,East,95,1.0,5.0,83,0.00,,,0.00,WUHU216DAVISVP2,2013-03-23 09:20:00,
2013-03-23 02:25:00,35.4,30.4,30.43,ENE,65,1.0,6.0,82,0.00,,,0.00,WUHU216DAVISVP2,2013-03-23 09:25:00,
2013-03-23 02:30:00,35.4,30.5,30.43,ESE,108,3.0,6.0,82,0.00,,,0.00,WUHU216DAVISVP2,2013-03-23 09:30:00,
2013-03-23 02:35:00,35.4,30.4,30.43,East,90,2.0,5.0,82,0.00,,,0.00,WUHU216DAVISVP2,2013-03-23 09:35:00,
2013-03-23 02:40:00,35.3,30.6,30.43,East,84,0.0,5.0,83,0.00,,,0.00,WUHU216DAVISVP2,2013-03-23 09:40:00,
2013-03-23 02:45:00,35.2,30.5,30.43,ENE,65,2.0,4.0,83,0.00,,,0.00,WUHU216DAVISVP2,2013-03-23 09:45:00,
2013-03-23 02:50:00,35.2,30.8,30.43,East,86,0.0,4.0,84,0.00,,,0.00,WUHU216DAVISVP2,2013-03-23 09:50:00,
2013-03-23 02:55:00,35.2,30.9,30.43,ENE,70,2.0,4.0,84,0.00,,,0.00,WUHU216DAVISVP2,2013-03-23 09:55:00,
2013-03-23 03:00:00,35.1,30.8,30.43,ENE,65,1.0,3.0,84,0.00,,,0.00,WUHU216DAVISVP2,2013-03-23 10:00:00,
2013-03-23 03:05:00,35.1,31.0,30.42,ENE,73,0.0,3.0,85,0.00,,,0.00,WUHU216DAVISVP2,2013-03-23 10:05:00,
2013-03-23 03:10:00,35.1,30.7,30.42,ENE,68,1.0,4.0,84,0.00,,,0.00,WUHU216DAVISVP2,2013-03-23 10:10:00,
2013-03-23 03:15:00,35.1,30.7,30.42,ESE,112,2.0,4.0,84,0.00,,,0.00,WUHU216DAVISVP2,2013-03-23 10:15:00,
2013-03-23 03:20:00,35.1,30.7,30.42,ENE,72,2.0,4.0,84,0.00,,,0.00,WUHU216DAVISVP2,2013-03-23 10:20:00,
2013-03-23 03:25:00,35.1,30.7,30.42,ENE,70,2.0,5.0,84,0.00,,,0.00,WUHU216DAVISVP2,2013-03-23 10:25:00,
2013-03-23 03:30:00,35.1,30.7,30.42,ESE,103,0.0,5.0,84,0.00,,,0.00,WUHU216DAVISVP2,2013-03-23 10:30:00,
2013-03-23 03:35:00,35.0,30.4,30.42,ENE,66,1.0,4.0,83,0.00,,,0.00,WUHU216DAVISVP2,2013-03-23 10:35:00,
2013-03-23 03:40:00,34.9,30.3,30.42,ENE,64,2.0,5.0,83,0.00,,,0.00,WUHU216DAVISVP2,2013-03-23 10:40:00,
2013-03-23 03:45:00,34.9,30.5,30.42,East,91,2.0,5.0,84,0.00,,,0.00,WUHU216DAVISVP2,2013-03-23 10:45:00,
2013-03-23 03:50:00,34.9,30.5,30.43,ENE,70,3.0,5.0,84,0.00,,,0.00,WUHU216DAVISVP2,2013-03-23 10:50:00,
2013-03-23 03:55:00,34.8,30.7,30.42,East,84,0.0,5.0,85,0.00,,,0.00,WUHU216DAVISVP2,2013-03-23 10:55:00,
2013-03-23 04:00:00,34.8,30.8,30.43,East,99,0.0,5.0,85,0.00,,,0.00,WUHU216DAVISVP2,2013-03-23 11:00:00,
2013-03-23 04:05:00,34.8,30.7,30.42,ENE,60,3.0,4.0,85,0.00,,,0.00,WUHU216DAVISVP2,2013-03-23 11:05:00,
2013-03-23 04:10:00,34.8,31.0,30.42,ENE,70,2.0,4.0,86,0.00,,,0.00,WUHU216DAVISVP2,2013-03-23 11:10:00,
2013-03-23 04:15:00,34.7,30.9,30.42,ENE,68,2.0,4.0,86,0.00,,,0.00,WUHU216DAVISVP2,2013-03-23 11:15:00,
2013-03-23 04:20:00,34.7,30.9,30.42,NE,50,3.0,4.0,86,0.00,,,0.00,WUHU216DAVISVP2,2013-03-23 11:20:00,
2013-03-23 04:25:00,34.7,30.9,30.42,ENE,68,3.0,4.0,86,0.00,,,0.00,WUHU216DAVISVP2,2013-03-23 11:25:00,
2013-03-23 04:30:00,34.7,30.9,30.42,NE,55,2.0,4.0,86,0.00,,,0.00,WUHU216DAVISVP2,2013-03-23 11:30:00,
2013-03-23 04:35:00,34.7,30.9,30.42,East,80,0.0,5.0,86,0.00,,,0.00,WUHU216DAVISVP2,2013-03-23 11:35:00,
2013-03-23 04:40:00,34.7,31.2,30.42,East,90,2.0,5.0,87,0.00,,,0.00,WUHU216DAVISVP2,2013-03-23 11:40:00,
2013-03-23 04:45:00,34.7,31.2,30.42,ENE,60,3.0,4.0,87,0.00,,,0.00,WUHU216DAVISVP2,2013-03-23 11:45:00,
2013-03-23 04:50:00,34.7,31.5,30.42,East,98,2.0,4.0,88,0.00,,,0.00,WUHU216DAVISVP2,2013-03-23 11:50:00,
2013-03-23 04:55:00,34.7,31.5,30.42,ENE,75,1.0,3.0,88,0.00,,,0.00,WUHU216DAVISVP2,2013-03-23 11:55:00,
2013-03-23 05:00:00,34.7,31.5,30.42,East,82,1.0,3.0,88,0.00,,,0.00,WUHU216DAVISVP2,2013-03-23 12:00:00,
2013-03-23 05:05:00,34.6,31.4,30.42,ENE,76,1.0,4.0,88,0.00,,,0.00,WUHU216DAVISVP2,2013-03-23 12:05:00,
2013-03-23 05:10:00,34.6,31.4,30.42,East,92,0.0,4.0,88,0.00,,,0.00,WUHU216DAVISVP2,2013-03-23 12:10:00,
2013-03-23 05:15:00,34.6,31.4,30.42,NE,48,0.0,3.0,88,0.00,,,0.00,WUHU216DAVISVP2,2013-03-23 12:15:00,
2013-03-23 05:20:00,34.5,31.0,30.42,ENE,77,1.0,3.0,87,0.00,,,0.00,WUHU216DAVISVP2,2013-03-23 12:20:00,
2013-03-23 05:25:00,34.5,31.0,30.43,East,85,0.0,3.0,87,0.00,,,0.00,WUHU216DAVISVP2,2013-03-23 12:25:00,
2013-03-23 05:30:00,34.5,31.3,30.42,ENE,65,1.0,3.0,88,0.00,,,0.00,WUHU216DAVISVP2,2013-03-23 12:30:00,
2013-03-23 05:35:00,34.5,31.3,30.42,ENE,76,0.0,3.0,88,0.00,,,0.00,WUHU216DAVISVP2,2013-03-23 12:35:00,
2013-03-23 05:40:00,34.5,31.3,30.42,East,87,0.0,3.0,88,0.00,,,0.00,WUHU216DAVISVP2,2013-03-23 12:40:00,
2013-03-23 05:45:00,34.4,30.9,30.42,East,92,0.0,3.0,87,0.00,,,0.00,WUHU216DAVISVP2,2013-03-23 12:45:00,
2013-03-23 05:50:00,34.4,30.9,30.42,East,96,0.0,3.0,87,0.00,,,0.00,WUHU216DAVISVP2,2013-03-23 12:50:00,
2013-03-23 05:55:00,34.4,30.9,30.42,East,92,1.0,4.0,87,0.00,,,0.00,WUHU216DAVISVP2,2013-03-23 12:55:00,
2013-03-23 06:00:00,34.4,30.6,30.42,ENE,60,1.0,4.0,86,0.00,,,0.00,WUHU216DAVISVP2,2013-03-23 13:00:00,
2013-03-23 06:05:00,34.4,30.6,30.42,East,84,0.0,4.0,86,0.00,,,0.00,WUHU216DAVISVP2,2013-03-23 13:05:00,
2013-03-23 06:10:00,34.4,30.6,30.42,ENE,64,1.0,4.0,86,0.00,,,0.00,WUHU216DAVISVP2,2013-03-23 13:10:00,
2013-03-23 06:15:00,34.4,30.6,30.42,ENE,57,1.0,4.0,86,0.00,,,0.00,WUHU216DAVISVP2,2013-03-23 13:15:00,
2013-03-23 06:20:00,34.4,30.9,30.42,East,91,2.0,3.0,87,0.00,,,0.00,WUHU216DAVISVP2,2013-03-23 13:20:00,
2013-03-23 06:25:00,34.4,30.9,30.42,ENE,65,2.0,4.0,87,0.00,,,0.00,WUHU216DAVISVP2,2013-03-23 13:25:00,
2013-03-23 06:30:00,34.4,30.9,30.43,SE,146,0.0,4.0,87,0.00,,,0.00,WUHU216DAVISVP2,2013-03-23 13:30:00,
2013-03-23 06:35:00,34.3,30.8,30.43,NE,55,0.0,4.0,87,0.00,,,0.00,WUHU216DAVISVP2,2013-03-23 13:35:00,
2013-03-23 06:40:00,34.3,30.8,30.43,ENE,67,0.0,3.0,87,0.00,,,0.00,WUHU216DAVISVP2,2013-03-23 13:40:00,
2013-03-23 06:45:00,34.2,31.0,30.43,East,82,0.0,3.0,88,0.00,,,0.00,WUHU216DAVISVP2,2013-03-23 13:45:00,
2013-03-23 06:50:00,34.1,30.9,30.42,ENE,75,0.0,3.0,88,0.00,,,0.00,WUHU216DAVISVP2,2013-03-23 13:50:00,
2013-03-23 06:55:00,34.1,30.9,30.43,ENE,75,1.0,2.0,88,0.00,,,0.00,WUHU216DAVISVP2,2013-03-23 13:55:00,
2013-03-23 07:00:00,34.1,30.9,30.43,ENE,63,0.0,2.0,88,0.00,,,0.00,WUHU216DAVISVP2,2013-03-23 14:00:00,
2013-03-23 07:05:00,34.0,30.8,30.43,ENE,67,1.0,2.0,88,0.00,,,0.00,WUHU216DAVISVP2,2013-03-23 14:05:00,
2013-03-23 07:10:00,34.0,30.8,30.43,ENE,67,1.0,4.0,88,0.00,,,0.00,WUHU216DAVISVP2,2013-03-23 14:10:00,
2013-03-23 07:15:00,34.0,30.8,30.43,NE,55,2.0,4.0,88,0.00,,,0.00,WUHU216DAVISVP2,2013-03-23 14:15:00,
2013-03-23 07:20:00,34.0,30.8,30.43,ENE,77,0.0,4.0,88,0.00,,,0.00,WUHU216DAVISVP2,2013-03-23 14:20:00,
2013-03-23 07:25:00,34.0,30.5,30.43,East,96,0.0,3.0,87,0.00,,,0.00,WUHU216DAVISVP2,2013-03-23 14:25:00,
2013-03-23 07:30:00,34.1,30.6,30.43,ENE,65,0.0,3.0,87,0.00,,,0.00,WUHU216DAVISVP2,2013-03-23 14:30:00,
2013-03-23 07:35:00,34.1,30.6,30.43,NE,49,0.0,3.0,87,0.00,,,0.00,WUHU216DAVISVP2,2013-03-23 14:35:00,
2013-03-23 07:40:00,34.1,30.6,30.43,ENE,75,1.0,2.0,87,0.00,,,0.00,WUHU216DAVISVP2,2013-03-23 14:40:00,
2013-03-23 07:45:00,34.3,30.8,30.43,East,97,0.0,3.0,87,0.00,,,0.00,WUHU216DAVISVP2,2013-03-23 14:45:00,
2013-03-23 07:50:00,34.3,30.8,30.43,ENE,68,2.0,3.0,87,0.00,,,0.00,WUHU216DAVISVP2,2013-03-23 14:50:00,
2013-03-23 07:55:00,34.4,30.9,30.43,ENE,70,0.0,3.0,87,0.00,,,0.00,WUHU216DAVISVP2,2013-03-23 14:55:00,
2013-03-23 08:00:00,34.4,30.9,30.43,ESE,106,2.0,3.0,87,0.00,,,0.00,WUHU216DAVISVP2,2013-03-23 15:00:00,
2013-03-23 08:05:00,34.5,31.0,30.43,ENE,59,1.0,3.0,87,0.00,,,0.00,WUHU216DAVISVP2,2013-03-23 15:05:00,
2013-03-23 08:10:00,34.6,31.1,30.43,ENE,70,2.0,4.0,87,0.00,,,0.00,WUHU216DAVISVP2,2013-03-23 15:10:00,
2013-03-23 08:15:00,34.7,31.2,30.43,ENE,68,2.0,4.0,87,0.00,,,0.00,WUHU216DAVISVP2,2013-03-23 15:15:00,
2013-03-23 08:20:00,34.8,31.0,30.43,East,82,1.0,4.0,86,0.00,,,0.00,WUHU216DAVISVP2,2013-03-23 15:20:00,
2013-03-23 08:25:00,34.9,30.8,30.43,ENE,71,2.0,4.0,85,0.00,,,0.00,WUHU216DAVISVP2,2013-03-23 15:25:00,
2013-03-23 08:30:00,35.0,30.9,30.43,ENE,63,3.0,4.0,85,0.00,,,0.00,WUHU216DAVISVP2,2013-03-23 15:30:00,
2013-03-23 08:35:00,35.1,31.0,30.43,ENE,68,1.0,5.0,85,0.00,,,0.00,WUHU216DAVISVP2,2013-03-23 15:35:00,
2013-03-23 08:40:00,35.3,31.2,30.43,ENE,63,2.0,5.0,85,0.00,,,0.00,WUHU216DAVISVP2,2013-03-23 15:40:00,
2013-03-23 08:45:00,35.4,31.0,30.43,SE,131,2.0,5.0,84,0.00,,,0.00,WUHU216DAVISVP2,2013-03-23 15:45:00,
2013-03-23 08:50:00,35.5,31.1,30.43,ENE,65,2.0,5.0,84,0.00,,,0.00,WUHU216DAVISVP2,2013-03-23 15:50:00,
2013-03-23 08:55:00,35.7,31.0,30.43,East,79,1.0,5.0,83,0.00,,,0.00,WUHU216DAVISVP2,2013-03-23 15:55:00,
2013-03-23 09:00:00,35.8,31.1,30.43,East,80,2.0,5.0,83,0.00,,,0.00,WUHU216DAVISVP2,2013-03-23 16:00:00,
2013-03-23 09:05:00,35.9,30.9,30.43,ESE,110,2.0,4.0,82,0.00,,,0.00,WUHU216DAVISVP2,2013-03-23 16:05:00,
2013-03-23 09:10:00,36.0,31.0,30.43,ENE,77,2.0,4.0,82,0.00,,,0.00,WUHU216DAVISVP2,2013-03-23 16:10:00,
2013-03-23 09:15:00,36.3,31.0,30.43,SE,128,1.0,4.0,81,0.00,,,0.00,WUHU216DAVISVP2,2013-03-23 16:15:00,
2013-03-23 09:20:00,36.5,31.2,30.43,East,97,3.0,5.0,81,0.00,,,0.00,WUHU216DAVISVP2,2013-03-23 16:20:00,
2013-03-23 09:25:00,36.6,31.0,30.43,ENE,68,1.0,5.0,80,0.00,,,0.00,WUHU216DAVISVP2,2013-03-23 16:25:00,
2013-03-23 09:30:00,36.7,30.8,30.43,East,90,2.0,5.0,79,0.00,,,0.00,WUHU216DAVISVP2,2013-03-23 16:30:00,
2013-03-23 09:35:00,36.9,31.0,30.43,SSE,159,1.0,5.0,79,0.00,,,0.00,WUHU216DAVISVP2,2013-03-23 16:35:00,
2013-03-23 09:40:00,37.1,30.9,30.43,East,92,3.0,5.0,78,0.00,,,0.00,WUHU216DAVISVP2,2013-03-23 16:40:00,
2013-03-23 09:45:00,37.4,31.5,30.43,SE,138,1.0,3.0,79,0.00,,,0.00,WUHU216DAVISVP2,2013-03-23 16:45:00,
2013-03-23 09:50:00,37.6,31.4,30.44,ENE,68,1.0,4.0,78,0.00,,,0.00,WUHU216DAVISVP2,2013-03-23 16:50:00,
2013-03-23 09:55:00,37.8,31.2,30.43,South,169,0.0,4.0,77,0.00,,,0.00,WUHU216DAVISVP2,2013-03-23 16:55:00,
2013-03-23 10:00:00,38.3,31.4,30.43,East,80,0.0,3.0,76,0.00,,,0.00,WUHU216DAVISVP2,2013-03-23 17:00:00,
2013-03-23 10:05:00,38.6,31.7,30.44,East,86,1.0,3.0,76,0.00,,,0.00,WUHU216DAVISVP2,2013-03-23 17:05:00,
2013-03-23 10:10:00,38.9,31.6,30.44,SSW,201,0.0,3.0,75,0.00,,,0.00,WUHU216DAVISVP2,2013-03-23 17:10:00,
2013-03-23 10:15:00,39.7,32.2,30.43,SSW,200,0.0,3.0,74,0.00,,,0.00,WUHU216DAVISVP2,2013-03-23 17:15:00,
2013-03-23 10:20:00,40.7,32.8,30.43,South,181,1.0,3.0,73,0.00,,,0.00,WUHU216DAVISVP2,2013-03-23 17:20:00,
2013-03-23 10:25:00,41.2,32.6,30.43,SW,233,0.0,4.0,71,0.00,,,0.00,WUHU216DAVISVP2,2013-03-23 17:25:00,
2013-03-23 10:30:00,41.6,32.6,30.43,SW,224,0.0,4.0,70,0.00,,,0.00,WUHU216DAVISVP2,2013-03-23 17:30:00,
2013-03-23 10:35:00,41.4,32.4,30.43,SE,131,0.0,4.0,70,0.00,,,0.00,WUHU216DAVISVP2,2013-03-23 17:35:00,
2013-03-23 10:40:00,41.3,32.7,30.43,SW,215,0.0,5.0,71,0.00,,,0.00,WUHU216DAVISVP2,2013-03-23 17:40:00,
2013-03-23 10:45:00,41.5,32.5,30.43,WSW,249,4.0,6.0,70,0.00,,,0.00,WUHU216DAVISVP2,2013-03-23 17:45:00,
2013-03-23 10:50:00,41.6,33.3,30.43,WSW,257,1.0,6.0,72,0.00,,,0.00,WUHU216DAVISVP2,2013-03-23 17:50:00,
2013-03-23 10:55:00,42.1,32.4,30.43,SW,226,2.0,5.0,68,0.00,,,0.00,WUHU216DAVISVP2,2013-03-23 17:55:00,
2013-03-23 11:00:00,42.2,32.5,30.43,South,191,5.0,6.0,68,0.00,,,0.00,WUHU216DAVISVP2,2013-03-23 18:00:00,
2013-03-23 11:05:00,42.0,32.3,30.43,SW,232,1.0,6.0,68,0.00,,,0.00,WUHU216DAVISVP2,2013-03-23 18:05:00,
2013-03-23 11:10:00,42.4,32.2,30.43,SSW,198,0.0,6.0,67,0.00,,,0.00,WUHU216DAVISVP2,2013-03-23 18:10:00,
2013-03-23 11:15:00,42.6,31.7,30.43,SSW,203,0.0,6.0,65,0.00,,,0.00,WUHU216DAVISVP2,2013-03-23 18:15:00,
2013-03-23 11:20:00,42.5,32.3,30.43,SW,231,1.0,6.0,67,0.00,,,0.00,WUHU216DAVISVP2,2013-03-23 18:20:00,
2013-03-23 11:25:00,42.7,32.6,30.43,SW,228,0.0,7.0,67,0.00,,,0.00,WUHU216DAVISVP2,2013-03-23 18:25:00,
2013-03-23 11:30:00,43.1,32.5,30.43,WSW,245,5.0,8.0,66,0.00,,,0.00,WUHU216DAVISVP2,2013-03-23 18:30:00,
2013-03-23 11:35:00,42.3,32.2,30.43,SW,231,0.0,8.0,67,0.00,,,0.00,WUHU216DAVISVP2,2013-03-23 18:35:00,
2013-03-23 11:40:00,43.2,31.9,30.43,WSW,245,6.0,7.0,64,0.00,,,0.00,WUHU216DAVISVP2,2013-03-23 18:40:00,
2013-03-23 11:45:00,42.6,32.1,30.43,WSW,245,5.0,8.0,66,0.00,,,0.00,WUHU216DAVISVP2,2013-03-23 18:45:00,
2013-03-23 11:50:00,43.3,33.2,30.43,East,86,0.0,8.0,67,0.00,,,0.00,WUHU216DAVISVP2,2013-03-23 18:50:00,
2013-03-23 11:55:00,44.3,32.6,30.42,SW,228,1.0,7.0,63,0.00,,,0.00,WUHU216DAVISVP2,2013-03-23 18:55:00,
2013-03-23 12:00:00,44.1,32.4,30.42,SW,224,3.0,7.0,63,0.00,,,0.00,WUHU216DAVISVP2,2013-03-23 19:00:00,
2013-03-23 12:05:00,44.9,33.1,30.42,ENE,65,1.0,7.0,63,0.00,,,0.00,WUHU216DAVISVP2,2013-03-23 19:05:00,
2013-03-23 12:10:00,45.2,32.2,30.42,West,266,2.0,9.0,60,0.00,,,0.00,WUHU216DAVISVP2,2013-03-23 19:10:00,
2013-03-23 12:15:00,45.3,32.6,30.42,SW,225,6.0,9.0,61,0.00,,,0.00,WUHU216DAVISVP2,2013-03-23 19:15:00,
2013-03-23 12:20:00,44.7,32.1,30.42,SW,224,5.0,9.0,61,0.00,,,0.00,WUHU216DAVISVP2,2013-03-23 19:20:00,
2013-03-23 12:25:00,44.3,31.7,30.42,WSW,242,3.0,9.0,61,0.00,,,0.00,WUHU216DAVISVP2,2013-03-23 19:25:00,
2013-03-23 12:30:00,45.2,32.9,30.42,West,259,1.0,9.0,62,0.00,,,0.00,WUHU216DAVISVP2,2013-03-23 19:30:00,
2013-03-23 12:35:00,46.1,33.1,30.42,SW,231,6.0,8.0,60,0.00,,,0.00,WUHU216DAVISVP2,2013-03-23 19:35:00,
2013-03-23 12:40:00,46.2,32.7,30.42,West,274,3.0,7.0,59,0.00,,,0.00,WUHU216DAVISVP2,2013-03-23 19:40:00,
2013-03-23 12:45:00,46.1,32.6,30.41,WSW,248,6.0,9.0,59,0.00,,,0.00,WUHU216DAVISVP2,2013-03-23 19:45:00,
2013-03-23 12:50:00,46.1,32.6,30.41,SSW,211,2.0,9.0,59,0.00,,,0.00,WUHU216DAVISVP2,2013-03-23 19:50:00,
2013-03-23 12:55:00,46.8,33.2,30.41,SW,224,7.0,9.0,59,0.00,,,0.00,WUHU216DAVISVP2,2013-03-23 19:55:00,
2013-03-23 13:00:00,46.3,31.5,30.41,SSW,207,1.0,11.0,56,0.00,,,0.00,WUHU216DAVISVP2,2013-03-23 20:00:00,
2013-03-23 13:05:00,46.1,32.2,30.41,WSW,252,3.0,11.0,58,0.00,,,0.00,WUHU216DAVISVP2,2013-03-23 20:05:00,
2013-03-23 13:10:00,46.1,31.3,30.40,SW,232,0.0,10.0,56,0.00,,,0.00,WUHU216DAVISVP2,2013-03-23 20:10:00,
2013-03-23 13:15:00,46.3,31.9,30.40,SSW,210,2.0,10.0,57,0.00,,,0.00,WUHU216DAVISVP2,2013-03-23 20:15:00,
2013-03-23 13:20:00,47.2,31.4,30.40,WSW,248,2.0,9.0,54,0.00,,,0.00,WUHU216DAVISVP2,2013-03-23 20:20:00,
2013-03-23 13:25:00,46.9,32.1,30.40,West,260,5.0,11.0,56,0.00,,,0.00,WUHU216DAVISVP2,2013-03-23 20:25:00,
2013-03-23 13:30:00,46.5,31.2,30.40,WSW,239,6.0,11.0,55,0.00,,,0.00,WUHU216DAVISVP2,2013-03-23 20:30:00,
2013-03-23 13:35:00,46.8,31.0,30.40,SW,233,8.0,11.0,54,0.00,,,0.00,WUHU216DAVISVP2,2013-03-23 20:35:00,
2013-03-23 13:40:00,46.7,30.9,30.39,WSW,253,4.0,10.0,54,0.00,,,0.00,WUHU216DAVISVP2,2013-03-23 20:40:00,
2013-03-23 13:45:00,46.6,30.4,30.39,SSW,202,2.0,10.0,53,0.00,,,0.00,WUHU216DAVISVP2,2013-03-23 20:45:00,
2013-03-23 13:50:00,46.9,30.2,30.39,SE,143,2.0,10.0,52,0.00,,,0.00,WUHU216DAVISVP2,2013-03-23 20:50:00,
2013-03-23 13:55:00,47.1,29.9,30.39,SW,232,7.0,9.0,51,0.00,,,0.00,WUHU216DAVISVP2,2013-03-23 20:55:00,
2013-03-23 14:00:00,47.2,28.4,30.39,SSW,203,6.0,9.0,48,0.00,,,0.00,WUHU216DAVISVP2,2013-03-23 21:00:00,
2013-03-23 14:05:00,47.9,30.1,30.39,NNE,27,1.0,9.0,50,0.00,,,0.00,WUHU216DAVISVP2,2013-03-23 21:05:00,
2013-03-23 14:10:00,48.6,28.1,30.39,WSW,238,8.0,11.0,45,0.00,,,0.00,WUHU216DAVISVP2,2013-03-23 21:10:00,
2013-03-23 14:15:00,48.3,27.8,30.39,SSE,155,1.0,11.0,45,0.00,,,0.00,WUHU216DAVISVP2,2013-03-23 21:15:00,
2013-03-23 14:20:00,48.0,25.4,30.39,SW,231,1.0,11.0,41,0.00,,,0.00,WUHU216DAVISVP2,2013-03-23 21:20:00,
2013-03-23 14:35:00,47.9,26.3,30.38,West,266,4.0,5.0,43,0.00,,,0.00,WUHU216DAVISVP2,2013-03-23 21:35:00,
2013-03-23 14:40:00,48.8,27.7,30.38,NE,37,0.0,7.0,44,0.00,,,0.00,WUHU216DAVISVP2,2013-03-23 21:40:00,
2013-03-23 14:45:00,49.2,26.9,30.39,NNW,335,0.0,7.0,42,0.00,,,0.00,WUHU216DAVISVP2,2013-03-23 21:45:00,
2013-03-23 14:50:00,49.9,27.0,30.38,WSW,238,6.0,7.0,41,0.00,,,0.00,WUHU216DAVISVP2,2013-03-23 21:50:00,
2013-03-23 14:55:00,49.3,26.0,30.38,SW,225,3.0,7.0,40,0.00,,,0.00,WUHU216DAVISVP2,2013-03-23 21:55:00,
2013-03-23 15:00:00,48.7,25.9,30.38,South,186,1.0,7.0,41,0.00,,,0.00,WUHU216DAVISVP2,2013-03-23 22:00:00,
2013-03-23 15:05:00,49.0,27.3,30.38,East,91,0.0,7.0,43,0.00,,,0.00,WUHU216DAVISVP2,2013-03-23 22:05:00,
2013-03-23 15:10:00,49.3,26.6,30.38,South,169,0.0,6.0,41,0.00,,,0.00,WUHU216DAVISVP2,2013-03-23 22:10:00,
2013-03-23 15:15:00,50.2,27.4,30.38,NNE,29,0.0,6.0,41,0.00,,,0.00,WUHU216DAVISVP2,2013-03-23 22:15:00,
2013-03-23 15:20:00,51.1,28.0,30.37,SW,221,2.0,6.0,41,0.00,,,0.00,WUHU216DAVISVP2,2013-03-23 22:20:00,
2013-03-23 15:25:00,50.0,25.8,30.38,SE,146,2.0,7.0,39,0.00,,,0.00,WUHU216DAVISVP2,2013-03-23 22:25:00,
2013-03-23 15:30:00,49.3,25.8,30.37,WSW,253,4.0,7.0,40,0.00,,,0.00,WUHU216DAVISVP2,2013-03-23 22:30:00,
2013-03-23 15:35:00,49.5,25.4,30.37,NNW,340,1.0,8.0,39,0.00,,,0.00,WUHU216DAVISVP2,2013-03-23 22:35:00,
2013-03-23 15:40:00,50.3,25.4,30.37,NNE,29,1.0,8.0,38,0.00,,,0.00,WUHU216DAVISVP2,2013-03-23 22:40:00,
2013-03-23 15:45:00,50.6,26.3,30.37,SW,214,5.0,7.0,39,0.00,,,0.00,WUHU216DAVISVP2,2013-03-23 22:45:00,
2013-03-23 15:50:00,50.1,25.5,30.37,SSW,200,0.0,7.0,38,0.00,,,0.00,WUHU216DAVISVP2,2013-03-23 22:50:00,
2013-03-23 15:55:00,50.3,26.1,30.37,WNW,302,1.0,8.0,39,0.00,,,0.00,WUHU216DAVISVP2,2013-03-23 22:55:00,
2013-03-23 16:00:00,49.2,24.5,30.37,East,82,0.0,9.0,38,0.00,,,0.00,WUHU216DAVISVP2,2013-03-23 23:00:00,
2013-03-23 16:05:00,49.3,26.0,30.37,WSW,248,5.0,9.0,40,0.00,,,0.00,WUHU216DAVISVP2,2013-03-23 23:05:00,
2013-03-23 16:10:00,48.9,25.0,30.37,SSW,198,2.0,8.0,39,0.00,,,0.00,WUHU216DAVISVP2,2013-03-23 23:10:00,
2013-03-23 16:15:00,49.2,25.7,30.37,WSW,248,4.0,9.0,40,0.00,,,0.00,WUHU216DAVISVP2,2013-03-23 23:15:00,
2013-03-23 16:20:00,48.9,26.0,30.36,ENE,77,1.0,9.0,41,0.00,,,0.00,WUHU216DAVISVP2,2013-03-23 23:20:00,
2013-03-23 16:25:00,49.4,25.3,30.36,WSW,253,7.0,9.0,39,0.00,,,0.00,WUHU216DAVISVP2,2013-03-23 23:25:00,
2013-03-23 16:30:00,49.1,25.6,30.36,WSW,239,0.0,9.0,40,0.00,,,0.00,WUHU216DAVISVP2,2013-03-23 23:30:00,
2013-03-23 16:35:00,49.5,25.5,30.36,WSW,238,5.0,8.0,39,0.00,,,0.00,WUHU216DAVISVP2,2013-03-23 23:35:00,
2013-03-23 16:40:00,49.6,25.4,30.36,ENE,78,1.0,8.0,39,0.00,,,0.00,WUHU216DAVISVP2,2013-03-23 23:40:00,
2013-03-23 16:45:00,50.3,26.1,30.36,WSW,239,1.0,7.0,39,0.00,,,0.00,WUHU216DAVISVP2,2013-03-23 23:45:00,
2013-03-23 16:50:00,50.2,26.0,30.36,WSW,245,0.0,6.0,39,0.00,,,0.00,WUHU216DAVISVP2,2013-03-23 23:50:00,
2013-03-23 16:55:00,50.4,26.2,30.35,NNE,23,1.0,5.0,39,0.00,,,0.00,WUHU216DAVISVP2,2013-03-23 23:55:00,
2013-03-23 17:00:00,50.8,26.5,30.35,SSW,200,0.0,4.0,39,0.00,,,0.00,WUHU216DAVISVP2,2013-03-24 00:00:00,
2013-03-23 17:05:00,51.4,25.8,30.35,SE,129,0.0,4.0,37,0.00,,,0.00,WUHU216DAVISVP2,2013-03-24 00:05:00,
2013-03-23 17:10:00,51.2,25.6,30.35,WSW,250,1.0,4.0,37,0.00,,,0.00,WUHU216DAVISVP2,2013-03-24 00:10:00,
2013-03-23 17:15:00,50.7,24.5,30.35,SSW,202,2.0,7.0,36,0.00,,,0.00,WUHU216DAVISVP2,2013-03-24 00:15:00,
2013-03-23 17:20:00,50.5,26.3,30.35,West,262,0.0,7.0,39,0.00,,,0.00,WUHU216DAVISVP2,2013-03-24 00:20:00,
2013-03-23 17:25:00,50.8,27.2,30.35,ESE,103,0.0,6.0,40,0.00,,,0.00,WUHU216DAVISVP2,2013-03-24 00:25:00,
2013-03-23 17:30:00,50.5,26.9,30.35,ESE,122,0.0,6.0,40,0.00,,,0.00,WUHU216DAVISVP2,2013-03-24 00:30:00,
2013-03-23 17:35:00,50.8,27.8,30.35,WSW,250,0.0,4.0,41,0.00,,,0.00,WUHU216DAVISVP2,2013-03-24 00:35:00,
2013-03-23 17:40:00,50.8,27.2,30.35,WSW,252,1.0,3.0,40,0.00,,,0.00,WUHU216DAVISVP2,2013-03-24 00:40:00,
2013-03-23 17:45:00,50.5,25.6,30.35,NE,41,0.0,3.0,38,0.00,,,0.00,WUHU216DAVISVP2,2013-03-24 00:45:00,
2013-03-23 17:50:00,49.6,25.6,30.35,NNE,18,1.0,4.0,39,0.00,,,0.00,WUHU216DAVISVP2,2013-03-24 00:50:00,
2013-03-23 17:55:00,49.1,26.4,30.35,NE,50,0.0,4.0,41,0.00,,,0.00,WUHU216DAVISVP2,2013-03-24 00:55:00,
2013-03-23 18:00:00,48.7,26.0,30.35,WSW,256,0.0,4.0,41,0.00,,,0.00,WUHU216DAVISVP2,2013-03-24 01:00:00,
2013-03-23 18:05:00,48.4,25.8,30.35,SSW,212,0.0,6.0,41,0.00,,,0.00,WUHU216DAVISVP2,2013-03-24 01:05:00,
2013-03-23 18:10:00,48.1,25.5,30.35,WSW,252,0.0,6.0,41,0.00,,,0.00,WUHU216DAVISVP2,2013-03-24 01:10:00,
2013-03-23 18:15:00,48.0,26.5,30.35,North,6,0.0,6.0,43,0.00,,,0.00,WUHU216DAVISVP2,2013-03-24 01:15:00,
2013-03-23 18:20:00,47.9,26.9,30.35,SE,125,0.0,6.0,44,0.00,,,0.00,WUHU216DAVISVP2,2013-03-24 01:20:00,
2013-03-23 18:25:00,47.7,26.1,30.35,SSW,204,0.0,2.0,43,0.00,,,0.00,WUHU216DAVISVP2,2013-03-24 01:25:00,
2013-03-23 18:30:00,47.4,26.4,30.35,NE,46,0.0,2.0,44,0.00,,,0.00,WUHU216DAVISVP2,2013-03-24 01:30:00,
2013-03-23 18:35:00,47.1,26.2,30.35,ENE,70,0.0,2.0,44,0.00,,,0.00,WUHU216DAVISVP2,2013-03-24 01:35:00,
2013-03-23 18:40:00,46.9,26.0,30.35,NE,39,0.0,2.0,44,0.00,,,0.00,WUHU216DAVISVP2,2013-03-24 01:40:00,
2013-03-23 18:45:00,46.5,26.7,30.34,East,93,0.0,1.0,46,0.00,,,0.00,WUHU216DAVISVP2,2013-03-24 01:45:00,
2013-03-23 18:50:00,46.3,26.5,30.34,North,354,0.0,2.0,46,0.00,,,0.00,WUHU216DAVISVP2,2013-03-24 01:50:00,
2013-03-23 18:55:00,46.0,26.3,30.35,North,10,1.0,3.0,46,0.00,,,0.00,WUHU216DAVISVP2,2013-03-24 01:55:00,
2013-03-23 19:00:00,45.6,26.4,30.34,North,3,2.0,4.0,47,0.00,,,0.00,WUHU216DAVISVP2,2013-03-24 02:00:00,
2013-03-23 19:05:00,45.1,27.0,30.34,NNE,15,0.0,4.0,49,0.00,,,0.00,WUHU216DAVISVP2,2013-03-24 02:05:00,
2013-03-23 19:10:00,44.8,28.2,30.34,North,1,0.0,4.0,52,0.00,,,0.00,WUHU216DAVISVP2,2013-03-24 02:10:00,
2013-03-23 19:15:00,44.5,28.4,30.34,NNE,16,1.0,4.0,53,0.00,,,0.00,WUHU216DAVISVP2,2013-03-24 02:15:00,
2013-03-23 19:20:00,44.3,28.7,30.34,NNW,336,1.0,4.0,54,0.00,,,0.00,WUHU216DAVISVP2,2013-03-24 02:20:00,
2013-03-23 19:25:00,43.9,27.9,30.34,NE,41,0.0,4.0,53,0.00,,,0.00,WUHU216DAVISVP2,2013-03-24 02:25:00,
2013-03-23 19:30:00,43.7,28.1,30.34,North,5,0.0,3.0,54,0.00,,,0.00,WUHU216DAVISVP2,2013-03-24 02:30:00,
2013-03-23 19:35:00,43.4,28.3,30.34,NNE,13,0.0,3.0,55,0.00,,,0.00,WUHU216DAVISVP2,2013-03-24 02:35:00,
2013-03-23 19:40:00,43.1,28.5,30.34,North,353,1.0,3.0,56,0.00,,,0.00,WUHU216DAVISVP2,2013-03-24 02:40:00,
2013-03-23 19:45:00,43.0,28.4,30.34,North,8,2.0,3.0,56,0.00,,,0.00,WUHU216DAVISVP2,2013-03-24 02:45:00,
2013-03-23 19:50:00,43.0,28.8,30.34,North,352,1.0,3.0,57,0.00,,,0.00,WUHU216DAVISVP2,2013-03-24 02:50:00,
2013-03-23 19:55:00,42.9,29.2,30.34,North,8,0.0,3.0,58,0.00,,,0.00,WUHU216DAVISVP2,2013-03-24 02:55:00,
2013-03-23 20:00:00,42.8,29.1,30.34,NNE,16,0.0,3.0,58,0.00,,,0.00,WUHU216DAVISVP2,2013-03-24 03:00:00,
2013-03-23 20:05:00,42.7,29.0,30.34,NNE,20,1.0,4.0,58,0.00,,,0.00,WUHU216DAVISVP2,2013-03-24 03:05:00,
2013-03-23 20:10:00,42.7,27.2,30.34,North,358,3.0,4.0,54,0.00,,,0.00,WUHU216DAVISVP2,2013-03-24 03:10:00,
2013-03-23 20:15:00,42.7,25.8,30.34,NNE,19,1.0,4.0,51,0.00,,,0.00,WUHU216DAVISVP2,2013-03-24 03:15:00,
2013-03-23 20:20:00,42.7,25.3,30.34,North,8,2.0,4.0,50,0.00,,,0.00,WUHU216DAVISVP2,2013-03-24 03:20:00,
2013-03-23 20:25:00,42.7,25.8,30.34,NNW,341,1.0,4.0,51,0.00,,,0.00,WUHU216DAVISVP2,2013-03-24 03:25:00,
2013-03-23 20:30:00,42.6,25.7,30.34,ENE,62,2.0,4.0,51,0.00,,,0.00,WUHU216DAVISVP2,2013-03-24 03:30:00,
2013-03-23 20:35:00,42.5,26.1,30.34,North,360,1.0,4.0,52,0.00,,,0.00,WUHU216DAVISVP2,2013-03-24 03:35:00,
2013-03-23 20:40:00,42.5,26.1,30.35,North,8,0.0,4.0,52,0.00,,,0.00,WUHU216DAVISVP2,2013-03-24 03:40:00,
2013-03-23 20:45:00,42.4,26.5,30.35,WSW,253,2.0,4.0,53,0.00,,,0.00,WUHU216DAVISVP2,2013-03-24 03:45:00,
2013-03-23 20:50:00,42.4,26.5,30.35,North,5,1.0,4.0,53,0.00,,,0.00,WUHU216DAVISVP2,2013-03-24 03:50:00,
2013-03-23 20:55:00,42.3,26.4,30.35,NNW,345,2.0,3.0,53,0.00,,,0.00,WUHU216DAVISVP2,2013-03-24 03:55:00,
2013-03-23 21:00:00,42.2,26.7,30.35,North,10,0.0,3.0,54,0.00,,,0.00,WUHU216DAVISVP2,2013-03-24 04:00:00,
2013-03-23 21:05:00,42.0,27.9,30.35,NNE,30,1.0,3.0,57,0.00,,,0.00,WUHU216DAVISVP2,2013-03-24 04:05:00,
2013-03-23 21:10:00,42.0,28.3,30.35,North,5,1.0,3.0,58,0.00,,,0.00,WUHU216DAVISVP2,2013-03-24 04:10:00,
2013-03-23 21:15:00,41.9,28.7,30.35,North,356,1.0,3.0,59,0.00,,,0.00,WUHU216DAVISVP2,2013-03-24 04:15:00,
2013-03-23 21:20:00,41.8,29.0,30.35,North,359,1.0,3.0,60,0.00,,,0.00,WUHU216DAVISVP2,2013-03-24 04:20:00,
2013-03-23 21:25:00,41.8,28.5,30.35,North,8,0.0,3.0,59,0.00,,,0.00,WUHU216DAVISVP2,2013-03-24 04:25:00,
2013-03-23 21:30:00,41.8,28.5,30.35,NNW,338,1.0,2.0,59,0.00,,,0.00,WUHU216DAVISVP2,2013-03-24 04:30:00,
2013-03-23 21:35:00,41.7,28.5,30.35,NNW,347,2.0,3.0,59,0.00,,,0.00,WUHU216DAVISVP2,2013-03-24 04:35:00,
2013-03-23 21:40:00,41.7,28.9,30.35,NNW,343,2.0,3.0,60,0.00,,,0.00,WUHU216DAVISVP2,2013-03-24 04:40:00,
2013-03-23 21:45:00,41.7,28.5,30.35,North,354,2.0,3.0,59,0.00,,,0.00,WUHU216DAVISVP2,2013-03-24 04:45:00,
2013-03-23 21:50:00,41.7,28.1,30.35,NNW,338,0.0,3.0,58,0.00,,,0.00,WUHU216DAVISVP2,2013-03-24 04:50:00,
2013-03-23 21:55:00,41.7,28.1,30.35,NNW,343,1.0,3.0,58,0.00,,,0.00,WUHU216DAVISVP2,2013-03-24 04:55:00,
2013-03-23 22:00:00,41.5,27.4,30.35,NNW,338,1.0,3.0,57,0.00,,,0.00,WUHU216DAVISVP2,2013-03-24 05:00:00,
2013-03-23 22:05:00,41.6,26.6,30.35,NNE,16,2.0,3.0,55,0.00,,,0.00,WUHU216DAVISVP2,2013-03-24 05:05:00,
2013-03-23 22:10:00,41.7,27.1,30.35,NNW,332,0.0,3.0,56,0.00,,,0.00,WUHU216DAVISVP2,2013-03-24 05:10:00,
2013-03-23 22:15:00,41.5,27.4,30.35,North,357,1.0,2.0,57,0.00,,,0.00,WUHU216DAVISVP2,2013-03-24 05:15:00,
2013-03-23 22:20:00,41.2,28.0,30.35,North,349,1.0,2.0,59,0.00,,,0.00,WUHU216DAVISVP2,2013-03-24 05:20:00,
2013-03-23 22:25:00,41.2,28.0,30.35,North,352,1.0,2.0,59,0.00,,,0.00,WUHU216DAVISVP2,2013-03-24 05:25:00,
2013-03-23 22:30:00,41.3,28.5,30.35,North,356,1.0,2.0,60,0.00,,,0.00,WUHU216DAVISVP2,2013-03-24 05:30:00,
2013-03-23 22:35:00,41.2,28.4,30.35,ENE,58,1.0,2.0,60,0.00,,,0.00,WUHU216DAVISVP2,2013-03-24 05:35:00,
2013-03-23 22:40:00,41.0,28.6,30.35,ENE,77,0.0,2.0,61,0.00,,,0.00,WUHU216DAVISVP2,2013-03-24 05:40:00,
2013-03-23 22:45:00,40.7,28.4,30.35,ENE,77,0.0,2.0,61,0.00,,,0.00,WUHU216DAVISVP2,2013-03-24 05:45:00,
2013-03-23 22:50:00,40.5,28.5,30.35,ENE,68,0.0,2.0,62,0.00,,,0.00,WUHU216DAVISVP2,2013-03-24 05:50:00,
2013-03-23 22:55:00,40.5,29.7,30.35,ENE,63,1.0,3.0,65,0.00,,,0.00,WUHU216DAVISVP2,2013-03-24 05:55:00,
2013-03-23 23:00:00,40.5,29.7,30.35,ENE,68,1.0,3.0,65,0.00,,,0.00,WUHU216DAVISVP2,2013-03-24 06:00:00,
2013-03-23 23:05:00,40.5,29.4,30.35,ENE,68,2.0,3.0,64,0.00,,,0.00,WUHU216DAVISVP2,2013-03-24 06:05:00,
2013-03-23 23:10:00,40.4,29.3,30.34,ENE,58,3.0,3.0,64,0.00,,,0.00,WUHU216DAVISVP2,2013-03-24 06:10:00,
2013-03-23 23:15:00,40.2,29.1,30.34,NE,39,1.0,3.0,64,0.00,,,0.00,WUHU216DAVISVP2,2013-03-24 06:15:00,
2013-03-23 23:20:00,40.0,28.9,30.34,ENE,68,1.0,3.0,64,0.00,,,0.00,WUHU216DAVISVP2,2013-03-24 06:20:00,
2013-03-23 23:25:00,39.9,28.8,30.34,NE,56,2.0,3.0,64,0.00,,,0.00,WUHU216DAVISVP2,2013-03-24 06:25:00,
2013-03-23 23:30:00,39.9,28.8,30.34,NE,47,2.0,4.0,64,0.00,,,0.00,WUHU216DAVISVP2,2013-03-24 06:30:00,
2013-03-23 23:35:00,39.9,28.3,30.34,ENE,67,2.0,4.0,63,0.00,,,0.00,WUHU216DAVISVP2,2013-03-24 06:35:00,
2013-03-23 23:40:00,39.8,28.2,30.34,ENE,68,2.0,4.0,63,0.00,,,0.00,WUHU216DAVISVP2,2013-03-24 06:40:00,
2013-03-23 23:45:00,39.6,28.0,30.34,ENE,70,2.0,3.0,63,0.00,,,0.00,WUHU216DAVISVP2,2013-03-24 06:45:00,
2013-03-23 23:50:00,39.6,28.1,30.34,East,79,1.0,3.0,63,0.00,,,0.00,WUHU216DAVISVP2,2013-03-24 06:50:00,
2013-03-23 23:55:00,39.5,28.4,30.34,ENE,58,2.0,3.0,64,0.00,,,0.00,WUHU216DAVISVP2,2013-03-24 06:55:00,